Regional Weather Roundup
Issued by NWS

Home | Current Version | Previous Version | Graphics & Text | Print | Product List | Glossary On
Versions: 1 2 3 4 5 6 7 8 9 10 11 12 13 14 15 16 17 18 19 20 21 22 23 24 25 26 27 28 29 30 31 32 33 34 35 36 37 38 39 40 41 42 43 44 45 46 47 48 49 50
000
ASUS43 KDTX 181810
RWRMI
MICHIGAN HOURLY REGIONAL WEATHER ROUNDUP
NATIONAL WEATHER SERVICE DETROIT/PONTIAC MI
200 PM EDT MON SEP 18 2017

NOTE: "FAIR" INDICATES FEW OR NO CLOUDS BELOW 12,000 FEET WITH NO
SIGNIFICANT WEATHER AND/OR OBSTRUCTION TO VISIBILITY.

MIZ047>049-052>055-059>063-066>070-074>076-081>083-181900-
SOUTHEAST LOWER MICHIGAN

CITY           SKY/WX    TMP DP  RH WIND       PRES   REMARKS
ADRIAN         CLOUDY    76  65  68 N5        30.08F
6HR MIN TEMP:  65; 6HR MAX TEMP:  76;

ALMA           MOSUNNY   72  53  51 N3        30.12F
ANN ARBOR      CLOUDY    74  67  78 NW8       30.08F
BAD AXE        PTSUNNY   69  56  62 N9        30.12F
CARO           PTSUNNY   70  56  60 N6        30.11F
DETROIT CITY   LGT RAIN  67  66  97 N9        30.08S FOG
6HR MIN TEMP:  67; 6HR MAX TEMP:  74; 6HR PCP:  0.10;

DETROIT        CLOUDY    73  68  84 N7        30.08F
6HR MIN TEMP:  68; 6HR MAX TEMP:  75;

FLINT          CLOUDY    69  60  73 N9        30.10F
6HR MIN TEMP:  63; 6HR MAX TEMP:  70;

GROSSE ILE     CLOUDY    73  67  82 CALM      30.06S
6HR MIN TEMP:  67; 6HR MAX TEMP:  73; 6HR PCP:  0.03;

HILLSDALE      CLOUDY    72  61  68 NW6       30.09F
HOWELL         CLOUDY    66  64  90 N6        30.10F FOG
6HR MIN TEMP:  64; 6HR MAX TEMP:  66;


CITY           SKY/WX    TMP DP  RH WIND       PRES   REMARKS
JACKSON        MOSUNNY   73  60  63 N3        30.09F HAZE
6HR MIN TEMP:  63; 6HR MAX TEMP:  74;

LAMBERTVILLE   CLOUDY    76  67  72 N3        30.07S
6HR MIN TEMP:  69; 6HR MAX TEMP:  77;

LANSING        PTSUNNY   73  58  59 N5        30.11F
6HR MIN TEMP:  60; 6HR MAX TEMP:  74;

LAPEER         CLOUDY    67  58  72 NE3       30.11F
6HR MIN TEMP:  62; 6HR MAX TEMP:  68;

MASON          MOSUNNY   71  61  69 NE3       30.10F
MONROE         CLOUDY    76  66  72 N3        30.06F
6HR MIN TEMP:  67; 6HR MAX TEMP:  76;

PONTIAC        CLOUDY    68  65  90 N6        30.09S
6HR MIN TEMP:  66; 6HR MAX TEMP:  70; 6HR PCP:  0.01;

PORT HOPE        N/A     67  57  70 VRB3      30.12R
6HR MIN TEMP:  63; 6HR MAX TEMP:  68;

PORT HURON     HVY RAIN  64  61  88 NW3       30.11S
TRI CITIES     CLOUDY    71  54  54 N9        30.13F
6HR MIN TEMP:  62; 6HR MAX TEMP:  71; 6HR PCP: TRACE;

MIDLAND        CLOUDY    72  55  55 N6        30.12S
6HR MIN TEMP:  62; 6HR MAX TEMP:  72;

TROY           LGT RAIN  66  65  96 NE6       30.11F
SAGINAW HB     PTSUNNY   70  52  52 N8        30.11F
$$
MIZ043>046-050>051-056>058-064>065-071>073-077>080-181900-
SOUTHWEST LOWER MICHIGAN

CITY           SKY/WX    TMP DP  RH WIND       PRES   REMARKS
BATTLE CREEK   PTSUNNY   72  61  68 VRB5      30.11F
6HR MIN TEMP:  60; 6HR MAX TEMP:  73;

BENTON HARBOR  SUNNY     71  58  63 NW7       30.10F
6HR MIN TEMP:  54; 6HR MAX TEMP:  72;

BIG RAPIDS     SUNNY     69  47  44 SE5       30.12F
6HR MIN TEMP:  57; 6HR MAX TEMP:  70;

COLDWATER      SUNNY     75  54  46 CALM      30.09F
6HR MIN TEMP:  63; 6HR MAX TEMP:  75;

FREMONT        FAIR      72  50  46 E3        30.11F
HOLLAND        SUNNY     71  57  61 CALM      30.11F
6HR MIN TEMP:  55; 6HR MAX TEMP:  71;

GRAND RAPIDS   MOSUNNY   76  56  49 VRB3      30.10F
6HR MIN TEMP:  58; 6HR MAX TEMP:  76;

IONIA          PTSUNNY   73  57  57 NE7       30.10F
6HR MIN TEMP:  58; 6HR MAX TEMP:  74;

KALAMAZOO      SUNNY     74  52  46 MISG      30.10F
6HR MIN TEMP:  61; 6HR MAX TEMP:  74;

LUDINGTON      SUNNY     70  51  52 NE6       30.11F
6HR MIN TEMP:  52; 6HR MAX TEMP:  71;

MARSHALL       PTSUNNY   67  61  81 CALM      30.10F
6HR MIN TEMP:  61; 6HR MAX TEMP:  67;

MOUNT PLEASANT SUNNY     74  52  46 NE3       30.12S
6HR MIN TEMP:  61; 6HR MAX TEMP:  74;

MUSKEGON       MOSUNNY   75  54  47 VRB3      30.11F
6HR MIN TEMP:  58; 6HR MAX TEMP:  75;

SOUTH HAVEN    SUNNY     73  58  59 NW7       30.10F
$$
MIZ016>042-181900-
NORTHERN LOWER MICHIGAN

CITY           SKY/WX    TMP DP  RH WIND       PRES   REMARKS
ALPENA         SUNNY     69  49  48 N7        30.13F
6HR MIN TEMP:  53; 6HR MAX TEMP:  69;

BEAVER ISLAND  SUNNY     65  46  50 NE3       30.16S
6HR MIN TEMP:  44; 6HR MAX TEMP:  65;

BELLAIRE       SUNNY     67  48  51 N5        30.14F
6HR MIN TEMP:  47; 6HR MAX TEMP:  67;

CADILLAC       SUNNY     70  46  43 NE3       30.13S
CHARLEVOIX     SUNNY     63  49  59 NW5       30.19S
FRANKFORT      SUNNY     69  52  55 N8        30.13F
GAYLORD        SUNNY     64  47  53 VRB6      30.15F
6HR MIN TEMP:  47; 6HR MAX TEMP:  65;

GRAYLING       SUNNY     68  49  50 SW3       30.14F
6HR MIN TEMP:  45; 6HR MAX TEMP:  68;

HARBOR SPRINGS SUNNY     64  51  61 SW8       30.15S
HOUGHTON LAKE  SUNNY     69  48  47 NE3       30.14F
6HR MIN TEMP:  52; 6HR MAX TEMP:  70;

MANISTEE       SUNNY     71  54  54 N9        30.11F
OSCODA         MOSUNNY   72  47  40 N7        30.11F
6HR MIN TEMP:  58; 6HR MAX TEMP:  72;

PELLSTON       SUNNY     68  44  42 NE5       30.15F
6HR MIN TEMP:  43; 6HR MAX TEMP:  69;

ROGERS CITY    SUNNY     64  49  58 N10       30.15S
TRAVERSE CITY  MOSUNNY   68  50  52 NE6       30.14F
6HR MIN TEMP:  54; 6HR MAX TEMP:  68;

$$
MIZ007>008-015-181900-
EASTERN UPPER MICHIGAN

CITY           SKY/WX    TMP DP  RH WIND       PRES   REMARKS
KINROSS        SUNNY     64  50  60 N9        30.14F
6HR MIN TEMP:  50; 6HR MAX TEMP:  65;

MACKINAC ISLAN SUNNY     63  50  61 W3        30.13F
6HR MIN TEMP:  52; 6HR MAX TEMP:  65;

NEWBERRY       SUNNY     64  44  48 CALM      30.14S
6HR MIN TEMP:  44; 6HR MAX TEMP:  64;

S. S. MARIE    SUNNY     65  49  56 NW6       30.12F
6HR MIN TEMP:  47; 6HR MAX TEMP:  66;

MUNISING         N/A     63  53  70 N10       30.14F
6HR MIN TEMP:  45; 6HR MAX TEMP:  66;

$$
MIZ004>006-011>014-085-181900-
CENTRAL UPPER MICHIGAN

CITY           SKY/WX    TMP DP  RH WIND       PRES   REMARKS
MANISTIQUE       N/A     64  46  52 MISG      30.15S
6HR MIN TEMP:  43; 6HR MAX TEMP:  64;

ESCANABA       SUNNY     64  47  53 S6        30.14F
6HR MIN TEMP:  44; 6HR MAX TEMP:  64;

MENOMINEE      SUNNY     64  53  67 E10       30.13F
6HR MIN TEMP:  51; 6HR MAX TEMP:  64;

SAWYER-GWINN   SUNNY     63  48  59 CALM      30.15F
$$
MIZ001>003-009>011-084-181900-
WESTERN UPPER MICHIGAN

CITY           SKY/WX    TMP DP  RH WIND       PRES   REMARKS
IRON MOUNTAIN  MOSUNNY   64  48  56 VRB3      30.13S
6HR MIN TEMP:  45; 6HR MAX TEMP:  66;

HOUGHTON       CLOUDY    61  45  55 SE6       30.13F
6HR MIN TEMP:  44; 6HR MAX TEMP:  61;

COPPER HARBOR    N/A     59  45  59 VRB6      30.14F
6HR MIN TEMP:  45; 6HR MAX TEMP:  60;

IRONWOOD       LGT RAIN  58  51  78 SE5       30.12F
6HR MIN TEMP:  44; 6HR MAX TEMP:  58; 6HR PCP: TRACE;

$$

ABBREVIATIONS USED IN REMARKS
   TC - TEMPERATURE IN CELSIUS
  WCI - WIND CHILL INDEX
   HX - HEAT INDEX
  VSB - VISIBILITY





USA.gov is the U.S. government's official web portal to all federal, state and local government web resources and services.